#timestamp,LO_Frequency,Hit 
1503864015.1,286047003.6,N
1503864035.9,286047003.7,N
1503864055.7,286047003.8,N
1503864075.5,286047001.5,N
1503864095.4,286047001.3,N
1503864115.2,286047004.5,P
1503864135.0,286047003.6,P
1503864136.0,286047003.6,P
1503864155.8,286047002.7,P
1503864175.6,286046995.1,P
1503864195.5,286046995.1,N
1503864215.3,286046995.5,N
1503864235.1,286046999.6,N
1503864255.8,286046998.3,N
1503864275.7,286046996.8,N
1503864295.5,286046996.7,N
1503864315.3,286046999.6,N
1503864335.2,286046997.4,N
1503864355.9,286046996.5,N
1503864375.7,286046997.2,N
1503864395.6,286046995.3,N
1503864415.4,286047000.9,N
1503864435.2,286046999.7,N
1503864455.1,286046999.8,N
1503864456.0,286046999.8,N
1503864475.8,286047000.5,N
1503864495.6,286046996.9,N
1503864515.5,286046998.2,N
1503864535.3,286046998.8,N
1503864555.1,286047001.2,N
1503864575.8,286046999.0,N
1503864595.8,286046996.6,N
1503864615.6,286046996.7,N
1503864635.5,286046998.5,N
1503864655.3,286047001.2,N
1503864675.1,286046999.9,N
1503864695.9,286047001.2,N
1503864715.7,286047000.0,N
1503864735.5,286046999.9,N
1503864755.3,286046998.5,N
1503864775.2,286046996.6,N
1503864795.0,286046997.9,N
1503864795.9,286046997.9,N
1503864815.7,286046996.7,N
1503864835.6,286046997.3,N
1503864855.4,286046997.4,N
1503864875.2,286046996.8,N
1503864895.1,286046997.0,N
1503864896.0,286046997.0,N
1503864915.8,286046999.5,N
1503864935.6,286046996.5,N
1503864955.5,286046999.8,N
1503864975.3,286047002.7,N
1503864995.1,286047002.8,N
1503865015.9,286047000.4,N
1503865035.7,286047002.3,N
1503865055.5,286047002.4,N
1503865075.4,286046999.9,N
1503865095.2,286047002.2,N
1503865115.0,286046999.4,N
1503865115.9,286046999.4,N
1503865135.8,286046998.9,N
1503865155.6,286046998.3,N
1503865175.4,286046999.0,N
1503865195.2,286046998.2,N
1503865215.1,286046998.4,N
1503865216.0,286046998.4,N
1503865235.8,286046999.6,N
1503865255.6,286046998.4,N
1503865275.5,286046998.6,N
1503865295.3,286047000.7,N
1503865315.1,286047000.9,N
1503865335.9,286046998.6,N
1503865355.7,286047001.0,N
1503865375.5,286047002.5,N
1503865395.4,286046999.7,N
1503865415.2,286047002.5,N
1503865435.0,286047001.7,N
1503865435.9,286047001.7,N
1503865455.8,286047004.2,N
1503865475.6,286047004.0,N
1503865495.4,286047003.0,N
1503865515.3,286047004.7,N
1503865535.1,286047004.6,N
1503865536.0,286047004.6,N
1503865555.8,286047005.7,N
1503865575.6,286047004.9,N
1503865595.5,286047007.6,P
1503865615.3,286047003.4,N
1503865635.2,286047004.4,N
1503865655.9,286047001.4,N
1503865675.7,286047001.8,N
1503865695.5,286047000.3,N
1503865715.4,286047002.5,N
1503865735.2,286047003.5,N
1503865755.0,286047001.4,N
1503865755.9,286047001.4,N
1503865775.8,286047002.6,N
1503865795.6,286047002.5,N
1503865815.4,286047004.0,N
1503865835.3,286047006.0,P
1503865855.1,286047002.9,N
1503865875.8,286047003.2,N
1503865895.7,286047000.1,N
1503865915.5,286046999.8,N
1503865935.3,286047000.3,N
1503865955.2,286047000.5,N
1503865975.9,286047000.9,N
1503865995.7,286047000.7,N
1503866015.6,286047000.9,N
1503866035.4,286047001.4,N
1503866055.2,286047004.0,N
1503866075.0,286047001.7,N
1503866075.9,286047001.7,N
1503866095.8,286047003.5,N
1503866115.6,286047005.1,P
1503866135.5,286047001.3,N
1503866155.3,286047002.0,N
1503866175.1,286047001.4,N
1503866195.8,286046999.9,N
1503866215.7,286047000.8,N
1503866235.5,286047003.6,N
1503866255.4,286047005.6,P
1503866275.2,286047002.3,N
1503866295.0,286047003.4,N
1503866295.9,286047003.4,N
1503866315.8,286047003.6,N
1503866335.6,286047001.8,N
1503866355.4,286047004.3,P
1503866375.3,286046998.9,N
1503866395.1,286046998.5,N
1503866396.0,286046998.5,N
1503866415.8,286046999.0,N
1503866435.7,286046996.9,N
1503866455.5,286047001.1,N
1503866475.3,286046998.8,N
1503866495.1,286046998.0,N
1503866515.9,286046997.0,N
1503866535.7,286046997.0,N
1503866555.5,286046999.6,N
1503866575.4,286046999.5,N
1503866595.2,286046997.1,N
1503866615.0,286047000.7,N
1503866615.9,286047000.7,N
1503866635.8,286046999.8,N
1503866655.6,286046998.6,N
1503866675.4,286047000.6,N
1503866695.3,286046996.8,N
1503866715.1,286046999.0,N
1503866716.0,286046999.0,N
1503866735.8,286047000.6,N
1503866755.6,286047000.4,N
1503866775.5,286046998.5,N
1503866795.3,286047002.2,N
1503866815.1,286047003.8,N
1503866835.9,286047003.4,N
1503866855.7,286047002.5,N
1503866875.5,286047001.6,N
1503866895.4,286047000.1,N
1503866915.2,286047002.3,N
1503866935.0,286047001.7,N
1503866935.9,286047001.7,N
1503866955.8,286047002.1,N
1503866975.6,286047001.4,N
1503866995.4,286046999.9,N
1503867015.3,286047000.5,N
1503867035.1,286047000.1,N
1503867036.0,286047000.1,N
1503867055.8,286047004.0,N
1503867075.7,286047003.6,N
1503867095.5,286047002.9,N
1503867115.3,286047007.3,P
1503867135.2,286047003.3,N
1503867155.9,286047003.3,N
1503867175.7,286047004.2,N
1503867195.6,286047002.2,N
1503867215.4,286047003.0,N
1503867235.2,286047004.4,N
1503867255.0,286047003.8,N
1503867256.0,286047003.8,N
1503867275.8,286047003.4,N
1503867295.6,286047003.0,N
1503867315.4,286047003.3,N
1503867335.3,286047005.5,P
1503867355.1,286047000.2,N
1503867375.8,286047002.1,N
1503867395.7,286046999.7,N
1503867415.5,286047000.5,N
1503867435.3,286047001.9,N
1503867455.2,286047000.2,N
1503867475.9,286047002.0,N
1503867495.7,286047001.7,N
1503867515.6,286047002.4,N
1503867535.4,286047000.5,N
1503867555.2,286047000.9,N
1503867575.1,286047001.7,N
1503867576.0,286047001.7,N
1503867595.8,286047004.0,N
